This demonstration page uses our WeatherBlox Daily Observations layout. Learn more.

Left ArrowRight Arrow

41.86663, -103.66717

Hourly Observations for November 12, 2020

Temp ( °F °C ) Dew Point ( °F °C ) Humidity (%) Winds ( mph kmh ) Pressure ( in mb ) Visibility ( mi km ) Precip ( " mm )
12:53 am 00:53 Clear 27 -2.8 19 -7.2 72 72 NW 7 11 29.98 1015 10 16 0.00 0.00
1:53 am 01:53 Clear 24 -4.4 19 -7.2 81 81 N 6 9 30.01 1016 10 16 0.00 0.00
2:53 am 02:53 Clear 22 -5.6 19 -7.2 89 89 N 7 11 30.03 1017 10 16 0.00 0.00
3:53 am 03:53 Clear 21 -6.1 17 -8.3 85 85 Calm 30.06 1018 10 16 0.00 0.00
4:53 am 04:53 Clear 20 -6.7 16 -8.9 85 85 N 6 9 30.09 1019 10 16 0.00 0.00
5:53 am 05:53 Clear 17 -8.3 14 -10 88 88 NNW 6 9 30.12 1020 10 16 0.00 0.00
6:53 am 06:53 Sunny 16 -8.9 14 -10 92 92 NW 5 7 30.16 1021 10 16 0.00 0.00
7:53 am 07:53 Partly Cloudy 22 -5.6 18 -7.8 85 85 W 3 6 30.17 1022 10 16 0.00 0.00
8:53 am 08:53 Partly Cloudy 24 -4.4 19 -7.2 81 81 WSW 3 6 30.19 1023 10 16 0.00 0.00
9:53 am 09:53 Sunny 27 -2.8 20 -6.7 75 75 SW 6 9 30.20 1023 10 16 0.00 0.00
10:53 am 10:53 Sunny 31 -0.6 21 -6.1 67 67 VRB 6 9 30.20 1023 10 16 0.00 0.00
11:53 am 11:53 Sunny 35 1.7 21 -6.1 57 57 WNW 8 13 30.16 1022 10 16 0.00 0.00
12:53 pm 12:53 Sunny 38 3.3 19 -7.2 46 46 W 7 11 30.15 1021 10 16 0.00 0.00
1:53 pm 13:53 Sunny 41 5 18 -7.8 39 39 NW 9 15 30.13 1020 10 16 0.00 0.00
2:53 pm 14:53 Sunny 41 5 9 -12.8 27 27 W 18 30 30.13 1020 10 16 0.00 0.00
3:53 pm 15:53 Sunny 40 4.4 8 -13.3 27 27 W 16 26 30.14 1021 10 16 0.00 0.00
4:53 pm 16:53 Clear 36 2.2 10 -12.2 34 34 W 9 15 30.18 1022 10 16 0.00 0.00
5:53 pm 17:53 Clear 32 0 11 -11.7 41 41 W 6 9 30.21 1023 10 16 0.00 0.00
6:53 pm 18:53 Clear 27 -2.8 12 -11.1 53 53 Calm 30.22 1024 10 16 0.00 0.00
7:53 pm 19:53 Clear 24 -4.4 13 -10.6 62 62 Calm 30.21 1023 10 16 0.00 0.00
8:53 pm 20:53 Clear 24 -4.4 13 -10.6 62 62 SE 3 6 30.21 1023 10 16 0.00 0.00
9:53 pm 21:53 Clear 23 -5 12 -11.1 63 63 Calm 30.19 1022 10 16 0.00 0.00
10:53 pm 22:53 Clear 27 -2.8 12 -11.1 53 53 S 9 15 30.16 1021 10 16 0.00 0.00
11:53 pm 23:53 Clear 22 -5.6 12 -11.1 66 66 ESE 3 6 30.15 1021 10 16 0.00 0.00

Powered by AerisWeather